Theta_e
323 319 314 315 312 314 310 303 300 296 293 289 285 291 294 294 293 294 294 295 298 298 296 301 297 300 299 298 298 300 300 298 296 297 298 307 315 322 325 334 336 338 343 344 346 347 347 344 346 349 350 350 350 349 350 350 350 350 350 350 350 350 350 349 350 349 349 349 349 349 349 349 348 348 347 348 348 346 344 343 342 341 341 342 342 342 342 341 341 341 340 340 341 341 343 344 345
316 315 314 313 316 316 310 298 291 289 288 287 289 287 291 291 293 293 295 295 298 304 301 304 305 304 304 306 305 304 303 306 300 312 308 311 318 323 328 334 338 341 343 344 344 344 345 346 344 348 350 350 350 349 349 349 349 349 349 350 350 350 349 349 348 348 349 348 348 349 348 349 349 348 347 347 346 346 345 343 341 340 341 342 343 343 342 341 340 340 340 339 339 340 343 343 344
317 314 317 315 312 308 303 300 300 284 287 289 287 289 290 293 293 293 292 294 299 303 296 301 300 298 301 301 302 300 302 310 312 310 317 318 322 326 326 333 337 344 343 343 343 344 345 344 342 346 349 350 349 348 348 348 348 348 350 349 348 348 348 349 349 348 348 347 348 348 348 347 347 347 346 345 345 345 344 342 341 339 340 341 342 342 341 341 340 339 339 338 338 339 343 344 345
315 314 314 310 310 303 296 291 289 288 286 285 286 290 289 293 293 293 294 292 298 296 296 301 302 301 301 299 301 303 303 310 316 316 316 320 323 327 326 329 339 345 345 343 343 343 345 342 341 345 349 350 349 348 348 348 348 348 349 349 348 348 348 348 348 348 349 348 349 348 347 347 345 347 345 344 345 344 342 341 339 338 340 341 342 342 341 341 340 339 338 337 339 339 343 344 344
314 316 311 308 305 303 293 288 286 287 289 285 292 290 291 291 295 291 297 293 292 293 294 299 302 302 301 301 301 301 305 307 309 311 318 319 320 323 326 329 338 346 344 342 343 344 344 339 341 344 348 349 349 348 348 348 347 348 348 349 348 347 347 347 347 348 347 347 347 347 347 346 346 346 344 345 343 342 341 339 337 337 339 341 342 341 341 340 339 339 338 339 340 342 343 343 343
310 307 308 308 305 302 295 293 292 292 289 288 289 293 290 292 295 292 294 291 293 292 295 296 301 302 303 307 306 306 307 307 308 313 314 322 325 325 327 330 341 343 345 343 343 344 344 338 340 343 347 349 349 348 348 347 347 347 347 347 347 346 346 346 346 347 347 347 347 347 346 346 345 345 345 344 343 341 339 336 335 336 338 339 340 340 340 339 339 338 337 339 341 342 342 342 342
314 305 303 305 299 299 294 288 288 286 296 289 294 291 292 291 293 292 295 296 296 295 292 300 300 300 301 301 300 310 313 315 317 322 321 326 325 326 328 333 343 343 346 345 345 344 344 338 342 344 347 349 348 348 348 347 347 346 347 346 346 345 346 346 346 346 347 347 347 347 346 345 345 345 344 343 342 340 338 335 335 335 337 339 339 339 339 339 339 337 337 338 340 341 340 340 340
310 311 302 298 293 292 289 286 289 287 294 289 291 291 291 291 290 293 292 295 296 297 299 298 293 299 299 302 299 307 306 310 321 317 317 319 327 330 329 335 342 344 346 346 346 345 343 338 342 345 345 346 349 349 347 347 347 346 347 346 345 345 345 346 347 347 347 348 347 347 346 345 345 344 344 342 340 338 336 335 334 335 337 338 338 338 337 338 338 337 337 338 339 338 338 338 337
303 302 296 298 292 288 286 291 291 288 288 289 290 290 300 290 290 292 292 292 295 294 299 300 296 298 296 300 300 305 303 307 305 306 317 324 329 332 331 338 341 343 345 345 345 344 345 337 341 344 343 346 348 348 348 347 347 346 346 346 345 345 345 346 347 346 346 347 347 345 345 345 344 344 343 342 340 337 335 333 334 335 337 338 337 336 336 337 336 336 336 337 338 336 335 333 332
301 303 298 294 290 291 284 289 291 292 291 291 291 294 290 289 290 293 294 295 295 294 299 295 295 298 298 300 300 302 306 305 303 319 320 328 332 334 332 339 342 344 345 345 344 344 345 341 338 339 341 345 345 347 347 348 347 346 345 345 345 346 346 346 346 346 346 346 345 345 344 344 343 342 342 341 339 336 334 332 333 335 337 337 336 336 336 335 335 335 334 336 335 333 331 329 328
298 295 295 294 286 286 289 289 286 288 291 290 290 291 291 290 291 291 292 295 292 296 297 295 299 297 299 299 299 303 302 301 317 324 319 326 332 334 335 338 341 345 345 347 345 344 341 340 334 332 335 341 344 346 347 347 348 347 346 347 346 346 346 346 346 345 346 346 345 344 344 342 342 341 341 340 338 336 334 332 332 334 334 333 334 334 335 334 334 334 334 334 333 330 327 326 325
299 293 293 286 286 288 286 289 289 288 290 289 295 293 291 292 292 293 294 295 294 294 296 297 301 299 298 294 301 303 302 306 310 314 320 328 331 331 334 336 340 343 346 345 345 342 340 341 337 334 333 338 340 342 343 344 347 347 347 347 347 346 345 346 346 346 345 345 344 344 343 343 342 342 341 340 337 336 335 333 331 330 330 330 330 331 332 333 333 332 331 331 328 327 325 324 323
295 291 290 290 289 289 287 288 290 295 288 289 294 295 290 293 295 293 291 293 292 295 296 295 296 299 298 297 299 298 306 305 309 316 322 327 329 327 328 329 330 334 339 345 344 343 342 342 340 340 334 330 334 334 336 339 341 345 346 346 346 346 346 346 345 346 345 345 344 344 343 342 341 341 340 338 336 336 335 333 331 330 328 326 326 328 330 330 330 330 328 326 325 324 323 322 321
294 293 293 292 284 285 286 289 286 291 290 291 291 292 292 294 293 291 293 295 293 295 297 296 298 298 300 297 301 299 301 304 313 318 318 324 326 324 325 326 327 326 329 333 331 333 333 338 341 341 338 340 339 336 331 334 338 342 343 343 342 343 345 345 344 344 344 343 342 340 339 339 340 340 339 338 336 335 334 333 331 329 327 326 325 326 327 328 328 326 325 324 323 322 322 322 322
297 290 288 285 285 288 285 290 290 288 291 290 295 291 292 295 292 289 295 294 295 294 298 298 298 297 296 297 296 296 299 304 317 314 317 323 325 322 322 323 323 324 324 324 324 326 326 331 336 337 339 341 339 339 341 338 333 337 339 339 340 341 342 340 340 340 338 338 337 336 335 334 334 334 333 334 335 332 331 330 332 329 327 327 325 323 324 325 326 325 325 324 323 322 322 321 320
293 292 288 289 288 286 289 288 284 287 291 290 293 290 294 295 290 294 294 296 297 298 296 300 300 297 297 297 300 298 299 311 315 313 319 324 323 322 321 321 321 321 321 321 321 323 322 324 328 329 331 335 340 339 340 339 330 332 336 338 338 339 337 336 335 334 330 329 329 329 329 333 330 331 326 331 329 330 329 328 330 329 327 327 324 322 322 323 324 325 324 324 323 322 321 320 318
293 292 289 285 290 287 289 289 288 291 290 290 290 292 295 294 295 294 295 294 298 297 295 298 298 299 295 296 299 299 302 308 314 315 319 323 322 322 322 322 321 320 319 319 319 321 320 321 322 327 327 328 332 340 339 339 335 330 333 331 332 333 333 332 329 325 323 322 324 324 326 338 337 335 336 333 324 330 322 324 328 328 327 327 324 323 323 324 324 323 322 321 319 317 314 314 314
291 289 286 288 284 287 289 291 290 290 292 293 292 292 293 293 295 298 296 296 294 295 297 297 298 299 298 298 300 302 302 315 313 319 318 319 321 321 321 320 324 321 316 317 317 317 319 318 320 323 325 326 328 336 339 338 337 334 339 338 338 333 328 325 330 334 329 333 325 332 337 336 337 336 334 329 331 329 327 322 324 326 327 326 325 324 325 325 324 323 321 319 317 314 310 308 307
289 284 286 289 285 290 292 290 291 293 297 292 292 289 293 294 295 296 295 294 293 297 296 296 298 297 302 302 303 308 314 314 314 316 318 319 321 321 321 320 319 317 316 315 315 314 316 317 317 319 321 324 326 330 339 338 339 337 337 338 336 332 330 332 333 333 335 335 336 337 335 336 336 334 334 332 330 322 326 322 324 325 326 326 325 324 324 323 322 321 320 317 314 311 309 308 306
290 289 290 283 288 290 289 290 292 291 291 292 292 291 292 294 295 295 297 293 292 295 295 295 296 299 299 302 304 311 314 315 312 312 315 317 319 323 319 318 316 316 315 314 313 313 314 315 315 317 320 322 325 328 331 339 339 338 336 336 336 335 334 334 334 333 335 336 336 337 336 336 336 335 327 323 324 328 325 320 320 320 320 319 318 319 319 320 320 318 316 314 311 310 308 306 305
292 288 286 290 287 293 293 288 289 289 292 291 291 291 293 294 292 295 292 294 293 294 294 298 298 298 298 301 303 310 313 313 310 309 311 313 313 314 318 316 315 313 312 311 312 312 312 313 314 316 318 320 323 325 326 336 338 339 336 336 336 335 334 334 334 333 334 335 335 336 336 335 335 333 332 332 330 328 327 324 322 320 319 317 315 316 315 315 314 314 312 311 310 308 307 305 304
289 291 289 289 287 293 293 288 289 289 288 290 289 293 294 293 294 292 293 294 295 295 297 295 297 296 298 302 302 308 311 312 311 307 308 310 312 314 309 309 308 308 308 312 312 311 312 312 314 316 317 318 321 325 325 326 336 338 337 336 336 335 335 335 334 333 334 334 335 335 335 335 334 332 332 332 330 329 326 323 320 319 318 317 316 316 315 315 314 313 311 309 307 306 305 304 302
295 291 288 288 288 293 290 289 289 288 290 290 290 293 293 293 294 290 292 296 296 292 294 293 294 295 299 303 302 306 308 310 310 308 307 307 307 309 308 307 309 311 309 311 309 309 310 312 314 316 318 319 321 323 324 328 332 339 338 336 335 334 335 335 334 334 335 335 334 333 334 335 334 332 331 331 330 329 327 324 321 319 317 316 316 315 315 314 313 311 309 307 306 304 303 302 300
289 292 289 292 288 293 290 292 288 287 291 291 291 293 294 291 295 292 291 295 295 293 293 294 295 293 301 302 303 306 308 310 310 308 306 307 307 307 307 305 304 306 308 309 310 310 310 312 313 315 319 321 322 323 329 331 332 336 337 334 335 332 333 333 334 335 335 334 333 334 333 334 333 331 329 329 329 328 326 325 323 320 318 317 316 316 314 313 311 309 307 305 303 302 301 299 298
293 292 291 291 289 290 288 288 287 288 289 290 291 294 294 291 294 291 293 296 295 295 296 297 296 298 300 302 302 303 305 306 307 304 300 301 302 302 302 301 303 306 308 308 309 311 312 312 313 316 319 320 321 324 329 330 331 332 333 335 334 329 334 333 333 333 333 333 332 332 332 331 330 329 328 327 327 326 325 324 323 321 319 317 316 316 314 312 312 309 305 303 302 300 299 298 297
293 294 290 290 293 290 289 289 289 289 293 290 294 292 290 291 291 293 298 297 291 296 297 297 297 299 299 301 302 302 303 304 304 302 303 300 299 302 303 304 304 306 307 308 309 311 312 312 314 316 318 319 322 325 329 329 329 330 329 328 331 329 332 330 331 332 331 329 331 333 333 332 330 328 327 327 327 325 324 322 321 320 319 318 317 314 313 311 309 306 303 302 301 299 298 297 296
291 290 290 292 292 290 292 293 291 290 292 291 294 291 293 291 293 295 292 292 294 297 296 295 297 298 299 300 300 301 302 302 303 302 301 300 300 302 304 302 304 307 306 308 309 311 312 313 314 316 318 318 320 326 328 327 328 327 326 325 325 328 328 327 327 328 328 327 327 331 331 331 330 329 327 325 324 323 322 320 319 318 316 316 315 312 312 309 307 304 302 301 299 298 297 297 295
290 290 289 291 288 291 290 290 291 292 296 288 294 292 291 292 292 295 296 293 294 296 296 296 296 298 298 298 299 299 299 300 300 301 304 301 303 302 303 304 304 304 306 307 309 311 312 313 314 316 318 318 319 325 324 325 324 322 322 324 322 322 323 324 323 324 322 324 325 327 328 327 326 327 326 324 323 322 320 319 318 316 313 313 311 310 308 306 304 303 302 301 299 298 296 295 295
291 290 294 291 287 295 289 292 290 291 295 290 292 293 291 290 292 296 291 293 294 294 295 295 295 295 296 297 298 298 300 299 299 300 303 304 303 302 304 303 305 306 307 308 309 310 311 312 313 315 318 319 322 323 322 320 320 320 320 319 319 319 320 321 321 321 322 322 322 324 325 325 323 323 323 323 321 321 319 318 315 312 311 310 310 308 306 304 303 301 300 300 298 296 295 294 294
292 290 290 291 287 288 291 289 289 292 293 288 292 290 290 291 296 294 293 293 294 294 295 295 295 294 294 294 296 298 298 298 298 300 301 301 301 302 303 304 306 307 307 308 309 309 311 312 313 315 318 319 319 318 318 317 316 316 317 317 317 318 318 317 317 318 319 320 321 321 320 319 320 321 319 318 319 319 316 313 311 310 309 308 307 306 304 303 301 300 299 298 296 295 293 293 292
293 290 286 286 287 287 290 289 290 292 291 290 292 290 292 291 291 289 289 292 294 295 296 295 294 294 294 295 295 297 298 298 299 300 299 299 300 301 303 304 306 306 306 308 309 309 309 310 312 313 314 314 314 314 315 315 315 314 314 314 314 316 315 315 315 315 316 317 317 316 317 316 317 318 318 317 315 315 313 311 308 308 308 308 306 305 304 303 301 299 298 295 295 294 292 292 291
285 289 285 280 286 284 286 290 289 292 292 289 293 289 292 294 295 290 289 291 292 294 295 294 293 294 294 294 295 296 297 298 297 298 298 298 298 300 301 304 305 305 306 308 309 309 309 310 311 313 313 312 312 311 311 311 311 310 310 310 312 312 312 311 312 312 312 313 313 313 314 313 315 316 316 315 313 311 309 306 305 305 305 305 305 304 302 300 299 298 297 296 293 292 291 290 291
281 287 284 286 284 283 288 290 286 289 290 292 292 291 287 291 291 289 290 291 291 292 293 293 292 292 293 294 295 296 296 297 297 297 297 298 298 300 301 303 305 305 306 306 307 308 308 309 310 311 311 310 309 308 308 308 308 308 306 307 307 308 308 309 308 309 310 311 311 311 311 311 312 312 311 311 309 307 304 303 303 303 303 303 303 302 301 300 298 297 296 296 294 291 290 290 290
285 283 285 281 285 284 286 287 288 288 291 290 291 289 291 294 292 288 290 291 290 291 293 294 293 293 293 294 294 295 296 297 298 298 297 297 298 299 300 303 304 304 305 306 307 308 308 308 308 308 308 308 307 306 305 306 306 306 305 305 305 304 304 306 305 306 307 308 309 308 308 309 309 308 307 307 306 304 303 302 301 301 301 301 300 300 299 299 298 297 295 294 293 291 290 290 289
280 285 285 286 283 283 286 286 289 290 288 289 287 288 290 293 294 294 290 290 291 292 294 294 294 293 293 293 294 294 295 296 297 299 298 297 297 299 300 302 304 305 306 306 307 307 306 306 306 306 306 306 304 304 304 304 304 304 304 303 303 302 301 302 304 302 304 305 305 305 306 306 306 305 304 303 303 302 300 299 299 299 301 300 300 298 297 297 297 296 294 293 294 293 291 290 289
283 284 284 282 286 285 285 287 287 289 288 287 287 290 292 292 294 294 293 290 291 293 293 293 293 293 293 293 294 294 295 295 298 298 298 297 298 299 300 301 304 305 306 305 306 306 305 305 305 305 305 304 303 303 303 303 304 303 301 302 301 301 301 301 301 302 303 302 302 302 304 304 304 303 303 302 301 300 299 298 297 297 298 299 298 297 296 296 295 294 294 293 291 291 291 290 290
284 283 282 282 284 284 285 285 286 286 288 288 290 290 289 291 292 294 294 290 290 291 292 293 293 294 294 294 294 294 294 296 297 297 297 297 297 299 300 302 303 305 305 305 305 305 305 304 304 304 303 303 302 303 303 303 302 302 303 302 301 299 299 299 298 299 299 299 300 300 300 301 302 301 300 300 298 298 297 297 297 298 297 298 298 298 297 296 296 295 293 293 291 289 289 290 290
287 284 286 285 284 286 287 290 288 286 290 285 285 286 288 289 291 293 293 290 292 293 293 293 294 294 295 294 295 295 295 294 293 295 295 296 297 298 300 301 303 304 305 305 304 305 305 304 306 304 302 302 303 304 304 305 305 305 305 300 298 297 296 297 296 297 296 296 296 297 298 299 300 299 298 297 296 296 295 295 296 296 297 296 297 297 296 295 295 294 293 290 292 290 289 290 290
284 287 284 285 285 284 287 287 286 287 288 288 287 287 290 291 292 293 293 294 295 295 296 297 297 296 295 295 295 295 294 295 294 295 295 295 296 297 299 301 303 305 305 305 305 305 304 304 305 303 303 303 303 303 303 301 300 301 301 297 296 294 293 293 293 293 294 294 294 294 296 297 297 296 296 295 294 295 294 294 293 294 294 295 295 295 295 294 294 293 293 291 289 289 288 288 289
285 283 285 286 283 286 285 285 286 289 288 286 284 287 290 291 292 293 295 296 295 295 295 295 296 296 297 297 296 294 294 294 294 294 294 294 295 297 299 301 303 305 304 304 304 304 304 304 303 302 302 302 302 301 298 296 295 295 295 294 293 293 292 293 292 292 293 294 292 292 293 295 295 295 295 294 294 293 293 292 293 294 294 295 295 294 294 293 294 294 293 292 291 289 289 288 287
284 286 285 285 285 285 287 286 285 285 287 285 287 288 291 292 292 292 293 289 291 295 295 295 295 295 296 295 294 295 295 295 295 294 294 293 294 296 298 301 303 303 304 304 304 304 304 304 304 303 302 302 301 297 295 295 293 292 292 292 293 292 293 292 293 291 291 291 291 292 291 292 293 293 293 293 291 291 292 292 292 292 293 293 294 294 293 293 294 294 293 292 293 291 287 286 286
282 283 288 288 287 287 284 285 287 286 283 284 286 285 282 282 287 290 292 289 292 291 292 294 295 296 294 293 294 294 295 295 295 295 294 294 294 296 298 301 302 303 304 304 305 304 304 303 302 302 302 301 297 295 295 295 295 295 292 295 294 294 291 293 294 293 290 292 290 290 290 291 291 292 291 291 291 290 290 291 291 291 291 291 293 292 291 290 291 292 293 294 292 293 290 286 285
285 285 286 289 287 286 286 285 288 282 282 286 285 285 283 286 290 290 289 287 292 294 292 294 295 295 293 294 295 294 294 293 293 294 294 294 294 295 297 300 302 302 304 304 304 304 304 302 302 302 301 299 296 295 295 295 295 296 300 301 301 300 298 295 293 293 292 289 289 288 288 289 290 290 289 289 289 289 288 289 290 290 290 289 289 289 289 290 290 290 288 291 291 289 290 288 286
283 284 284 286 286 286 285 286 287 284 283 285 285 283 284 286 287 291 292 292 293 293 295 297 298 296 294 294 294 294 293 293 294 294 294 294 294 295 296 299 302 303 303 303 303 303 303 302 301 302 300 298 296 295 295 296 295 296 297 299 300 301 300 297 291 289 289 288 288 287 288 287 288 288 288 287 288 287 287 287 288 288 288 288 288 289 288 287 287 287 287 288 288 289 291 287 285
284 286 284 285 286 285 284 286 283 283 283 283 283 286 285 283 285 287 287 289 291 292 295 297 297 295 294 295 294 294 293 293 293 293 293 293 294 295 297 299 302 303 302 302 302 302 303 302 301 300 298 297 295 295 295 296 297 297 298 298 297 292 291 290 289 289 288 288 287 287 287 286 286 286 286 286 287 287 287 287 287 287 287 287 287 287 286 286 287 286 286 287 287 286 288 287 286
286 284 285 284 283 283 282 282 285 282 281 282 283 286 281 286 284 287 285 289 289 292 295 297 297 295 295 295 294 292 291 291 292 293 294 294 294 295 297 301 302 303 303 302 302 302 302 301 299 298 297 296 295 294 295 295 296 297 296 296 294 290 289 287 288 287 287 287 286 286 286 286 286 286 285 286 286 286 286 286 287 287 286 286 286 286 285 286 286 287 287 286 286 286 285 286 286
287 286 288 286 283 282 281 281 280 281 278 285 284 286 286 283 285 288 289 290 292 295 294 294 293 293 293 292 292 291 290 290 291 292 292 293 294 295 298 300 302 303 302 301 300 301 301 300 299 299 297 295 295 294 295 295 296 296 296 294 292 290 290 287 286 286 286 286 286 285 286 285 285 285 285 285 285 285 285 285 286 286 286 286 285 285 285 285 285 285 285 285 285 285 284 285 284
289 288 284 288 286 280 280 274 277 277 278 282 282 284 285 281 282 284 289 288 287 290 293 293 292 292 293 291 289 289 289 290 290 291 291 292 292 294 297 299 301 302 301 300 299 300 299 299 298 298 295 294 294 294 294 295 294 295 295 293 291 290 288 289 289 286 286 286 286 285 285 285 284 284 284 284 284 284 285 285 285 285 285 285 285 285 285 285 284 285 285 285 285 285 284 284 283
288 287 288 283 276 273 274 272 277 275 279 281 281 282 284 284 289 285 287 292 293 291 292 294 294 293 293 292 291 289 288 289 290 290 291 291 292 293 295 298 300 301 300 300 298 298 299 298 298 298 295 294 293 294 294 294 293 293 293 291 290 289 290 292 292 287 287 287 286 285 284 284 284 284 283 284 284 284 284 284 284 284 284 284 284 284 284 284 284 284 284 284 284 284 284 284 283
286 288 284 279 273 274 271 269 267 270 277 280 282 283 283 284 288 293 295 297 297 294 293 293 294 295 295 293 291 288 288 289 290 290 291 291 292 293 296 298 300 300 300 299 298 297 298 297 297 297 296 294 293 293 293 293 293 293 292 291 290 289 290 289 289 288 287 287 286 285 285 285 284 285 284 284 284 284 284 285 285 285 284 284 284 284 284 284 284 284 284 284 284 283 284 284 284
289 286 289 285 279 273 271 271 275 279 277 277 278 277 278 279 286 287 292 293 288 289 291 291 290 291 292 289 287 286 287 288 289 290 290 291 292 293 295 297 299 300 299 299 297 297 297 297 296 296 295 293 293 293 293 292 292 292 291 290 289 289 288 288 288 288 287 286 286 286 286 286 285 285 285 285 284 284 284 284 284 284 283 283 283 283 284 283 284 283 283 283 282 282 283 282 282
286 285 285 281 284 280 279 274 271 270 272 274 273 282 281 286 286 288 288 288 289 289 288 287 290 291 290 290 289 289 289 289 289 289 290 291 292 293 295 297 299 299 299 299 298 297 296 296 295 295 294 293 293 293 292 292 291 291 290 289 289 289 288 287 287 287 287 287 286 286 285 285 285 285 284 283 283 283 283 283 283 283 283 283 283 283 283 283 283 282 282 282 281 282 282 282 281
285 287 284 286 285 284 274 274 276 274 271 280 274 281 284 286 290 292 295 293 292 290 290 288 290 291 289 291 293 290 289 289 289 289 290 290 291 292 294 296 298 299 299 299 298 297 295 295 294 294 293 293 293 292 292 291 289 289 289 289 288 287 286 286 286 286 285 286 286 285 285 284 284 284 283 283 283 283 283 283 282 282 282 282 282 282 282 282 282 282 281 281 281 281 281 281 281
286 281 285 286 286 284 283 278 273 273 275 278 276 280 284 282 285 285 288 288 292 292 293 293 292 289 290 294 295 294 291 289 289 289 289 290 291 292 293 295 297 298 299 299 298 297 295 295 294 294 293 291 292 292 291 290 288 288 288 288 287 287 286 286 286 285 285 285 284 284 284 283 283 283 283 283 282 282 282 282 282 282 282 282 282 281 282 281 282 281 281 281 281 281 280 280 280
286 283 287 289 282 280 281 276 275 270 271 275 276 277 280 284 287 287 286 286 289 291 291 289 291 290 290 291 291 290 288 287 287 288 288 289 290 291 292 294 296 297 298 299 299 297 295 294 294 294 293 292 292 292 291 289 289 288 288 288 287 286 286 286 285 285 284 284 283 283 283 283 283 283 282 282 282 282 282 282 282 281 281 281 281 281 281 281 281 280 280 280 280 280 280 279 279
287 289 288 287 284 275 278 283 275 279 272 269 277 274 285 287 286 288 291 289 290 291 289 291 292 291 290 289 289 288 287 287 287 288 288 289 290 291 292 293 294 295 297 298 298 297 295 295 293 293 292 292 291 291 290 289 288 288 287 287 286 286 285 285 285 284 283 283 283 283 282 282 282 282 282 282 282 282 282 281 281 281 281 280 280 280 280 280 280 280 280 279 279 279 279 279 278
285 286 284 286 282 284 281 279 279 279 268 267 270 279 285 289 288 288 292 292 292 291 292 293 292 290 288 288 288 288 287 287 287 288 288 288 289 290 290 292 293 293 295 296 297 296 295 294 293 293 291 290 290 290 289 288 287 287 286 285 285 284 284 284 283 283 283 283 282 283 282 282 282 282 282 281 281 281 281 281 280 280 280 280 279 279 280 280 280 279 279 279 278 278 278 278 278
290 290 287 289 284 281 278 279 279 270 276 278 272 280 287 288 287 292 291 292 292 292 295 294 293 290 288 289 288 287 287 287 287 288 288 288 289 289 289 290 290 291 291 292 295 295 294 294 293 292 291 290 289 289 288 288 286 286 286 285 284 284 284 283 283 283 282 282 282 282 282 282 282 282 282 281 281 281 281 280 280 280 280 279 279 279 279 279 279 278 278 278 278 278 278 277 277
Wind_Speed
5 5 3 1 3 1 3 8 1 2 3 1 1 0 1 0 1 2 3 3 0 1 1 2 2 2 2 3 4 5 2 5 4 4 1 1 2 3 3 4 3 4 6 4 3 2 2 3 1 3 9 10 10 10 11 11 11 11 12 12 12 12 12 12 11 12 12 13 13 14 14 14 15 16 16 17 17 17 18 18 18 18 18 18 18 19 19 19 18 18 17 16 16 16 15 15 15
3 5 2 1 1 1 0 1 5 4 6 3 2 1 2 1 1 3 3 3 1 0 2 5 5 6 6 6 7 3 3 1 4 1 2 2 3 2 2 3 0 6 6 4 2 1 1 2 4 4 7 10 9 9 10 11 11 10 12 12 13 12 13 13 13 13 13 14 13 13 14 14 16 16 16 17 17 17 17 17 17 17 18 18 18 18 19 18 19 18 18 17 16 16 16 16 17
4 6 1 2 4 5 3 4 1 1 3 0 2 6 2 2 1 2 5 3 3 4 2 4 2 2 2 0 2 2 1 0 2 2 1 1 3 1 4 4 2 3 6 4 3 2 1 1 3 2 6 9 9 8 9 10 10 10 10 12 12 12 12 12 13 13 13 13 13 13 14 15 16 16 16 16 16 16 17 17 17 17 17 17 18 18 18 18 18 18 18 17 17 16 17 16 18
2 6 2 3 0 4 2 5 4 6 1 3 2 3 4 3 4 4 3 3 3 1 2 0 1 1 1 2 1 1 2 1 2 2 1 2 1 2 4 4 4 3 5 5 4 4 2 1 1 3 5 8 8 8 9 9 10 9 7 9 12 12 11 12 12 12 13 13 13 13 14 16 15 16 16 16 15 16 17 17 17 16 17 18 18 18 18 18 18 19 19 18 17 17 17 19 19
3 3 2 3 5 2 4 2 4 3 1 6 2 3 5 5 4 5 1 1 4 1 1 0 2 2 1 3 2 1 2 1 3 2 2 3 2 1 5 5 3 7 7 5 6 4 4 3 1 1 3 8 9 9 9 9 10 9 8 9 11 12 11 11 12 12 12 13 13 13 14 15 15 16 16 15 15 16 17 16 16 16 17 17 18 18 19 18 19 18 19 18 18 18 19 20 20
4 3 5 3 1 3 5 2 2 1 3 7 1 2 6 7 7 6 1 3 3 4 4 1 0 2 1 1 2 1 3 2 2 2 2 2 2 2 4 4 4 8 7 6 7 6 5 6 3 1 4 9 9 9 9 10 11 11 9 9 11 11 11 11 11 11 12 12 13 13 15 14 15 15 15 15 15 16 16 16 16 16 17 17 18 19 18 19 19 18 19 19 19 19 19 20 19
1 4 6 4 3 4 4 4 3 2 0 5 0 1 6 6 5 6 0 1 0 2 2 1 2 2 3 1 1 3 2 0 2 2 5 3 5 3 3 4 6 7 7 6 6 6 6 6 5 4 2 6 10 9 9 10 11 10 9 10 11 11 11 10 11 11 11 12 13 13 14 14 15 14 14 15 15 15 15 16 16 16 17 17 17 18 19 19 19 19 19 18 19 19 20 20 20
2 1 2 3 1 4 3 2 2 4 1 6 1 3 3 6 6 3 3 2 2 3 1 2 1 1 0 1 2 1 2 3 2 3 4 4 5 2 2 4 6 6 8 7 6 5 5 6 5 4 4 4 7 7 9 10 11 9 8 9 10 11 11 10 10 11 12 12 13 13 14 14 14 14 14 14 15 15 15 16 16 17 17 17 18 18 19 19 19 19 19 19 20 20 20 21 20
6 7 1 5 4 4 3 3 1 4 6 3 6 6 4 4 6 5 3 2 1 1 1 3 1 1 2 1 1 1 3 2 4 4 3 4 3 1 3 6 7 6 6 6 6 5 5 5 4 3 2 2 4 6 7 9 10 10 9 8 9 10 10 10 10 10 11 12 12 12 13 13 13 14 14 14 14 15 16 16 16 17 17 17 17 18 19 19 19 19 19 20 21 21 20 19 19
3 1 1 3 4 2 2 1 2 3 2 3 2 1 4 4 4 0 3 0 2 1 3 1 1 0 1 2 0 2 2 2 3 1 2 2 2 2 5 5 9 7 8 5 6 6 5 4 5 2 1 2 3 3 7 6 8 9 10 8 9 10 10 9 9 10 11 11 11 12 13 12 13 14 14 14 14 15 16 16 17 17 17 18 18 18 18 19 19 19 20 20 20 19 19 19 19
1 6 3 4 5 3 2 2 5 4 2 5 7 8 5 6 4 2 2 0 1 2 0 2 0 3 2 1 3 2 4 2 4 4 2 2 2 3 4 2 4 7 8 7 5 7 4 5 4 4 4 3 4 5 5 5 7 7 8 8 9 10 10 9 9 10 11 11 11 12 12 12 13 13 14 14 15 15 16 17 17 17 17 18 18 18 18 18 18 19 19 19 19 19 19 19 19
1 2 2 4 2 6 4 5 2 4 7 3 1 0 4 8 2 2 1 2 2 1 2 5 0 6 1 3 1 1 4 4 3 1 2 0 4 4 4 2 1 2 6 6 5 6 5 5 6 4 7 4 3 4 2 3 6 6 6 8 9 8 9 9 9 9 10 10 11 12 13 13 13 14 14 15 15 15 16 17 17 17 17 17 17 17 17 18 18 18 19 18 19 19 19 19 19
3 2 6 6 1 0 1 2 1 2 3 5 3 0 4 5 4 5 5 1 2 3 3 7 2 0 1 2 1 4 3 2 2 2 0 4 5 3 4 4 5 6 5 4 4 4 8 7 5 5 4 6 5 5 2 2 4 6 6 7 8 8 9 9 8 8 9 9 11 10 11 11 12 13 14 15 15 15 16 16 17 17 18 17 17 17 17 18 18 18 19 19 19 19 19 19 19
5 6 5 2 2 4 4 1 1 3 4 2 3 1 3 2 3 5 7 3 3 4 1 1 2 2 0 1 1 2 4 3 2 2 1 4 5 4 6 4 7 6 6 6 5 4 5 3 6 6 6 3 4 8 3 3 3 5 6 7 8 8 9 8 7 7 8 9 10 11 11 10 12 12 13 14 15 14 16 16 17 17 17 17 17 18 18 18 18 19 19 19 19 19 19 19 19
3 2 7 6 2 1 2 4 8 6 5 3 1 5 2 3 1 4 6 4 6 2 1 0 2 2 4 6 4 6 5 5 4 2 3 6 7 5 5 3 6 6 5 5 4 5 5 3 5 5 5 7 4 1 2 3 2 4 7 7 8 8 8 8 8 8 8 9 10 11 10 11 12 12 12 12 12 14 13 13 14 16 17 17 17 18 18 18 18 19 19 19 19 20 19 19 19
6 6 5 4 1 4 3 2 1 4 5 6 1 2 3 0 3 4 4 1 1 0 0 3 1 2 0 3 0 1 2 2 2 3 5 9 6 5 5 4 6 4 4 4 4 5 3 2 4 1 5 2 6 6 4 4 2 3 6 8 8 9 9 9 9 9 9 9 10 11 11 11 11 11 12 11 11 14 13 11 13 15 16 17 18 18 19 19 19 19 19 19 19 19 19 18 18
3 4 3 4 2 3 3 3 6 3 4 4 3 2 4 2 0 2 1 2 3 2 2 1 3 1 4 2 1 2 3 3 1 4 7 8 5 5 4 3 4 3 2 4 4 3 3 3 3 2 3 3 1 6 6 5 3 4 5 6 9 10 9 9 10 10 9 8 9 9 10 8 6 6 8 7 10 11 11 12 13 15 16 16 17 18 18 19 19 20 20 20 19 19 18 19 19
1 2 6 1 3 4 6 8 10 1 2 3 4 3 5 1 0 0 1 2 3 1 2 3 2 6 4 2 2 3 2 6 4 8 7 8 6 6 5 3 5 5 3 3 3 3 3 3 3 3 2 4 2 2 5 4 4 3 5 5 5 8 8 8 7 7 7 6 8 7 6 6 5 5 6 7 7 10 10 12 13 13 15 16 16 18 18 18 19 19 19 19 18 17 14 9 10
4 2 2 6 5 5 8 5 7 3 0 2 3 1 3 3 6 2 1 1 2 1 3 0 3 5 1 2 1 4 6 6 6 7 10 12 9 9 8 6 5 4 3 2 1 2 2 2 2 2 3 2 2 1 4 5 5 4 5 5 5 8 7 7 7 6 6 7 6 6 6 5 6 5 5 5 6 12 11 11 13 14 15 15 16 17 18 18 18 18 18 17 17 14 8 8 8
1 3 1 3 9 2 6 6 7 2 4 4 4 1 1 1 2 1 2 1 1 6 5 2 4 8 8 4 3 6 6 8 5 8 10 10 9 10 9 9 6 6 4 2 2 0 0 1 1 2 2 2 2 1 2 6 5 5 5 5 5 6 7 7 7 6 6 7 7 5 5 5 6 5 7 12 9 8 9 11 13 15 15 15 15 12 14 16 17 17 16 14 10 6 7 7 7
1 2 2 2 4 1 2 8 5 5 0 3 4 1 1 1 3 2 3 1 5 8 9 8 10 12 9 8 7 7 8 9 7 7 8 9 7 5 6 6 6 4 2 2 2 1 1 0 2 1 0 1 1 0 0 5 7 6 5 6 6 6 5 7 6 7 7 6 7 6 5 6 6 5 6 6 5 6 6 7 6 6 7 9 12 8 8 7 8 7 8 8 7 7 8 8 7
4 1 1 2 3 1 0 7 2 4 1 6 3 5 4 2 1 2 7 6 8 7 6 10 9 4 8 11 9 7 8 9 10 8 10 11 12 10 4 2 0 1 1 1 1 1 2 1 1 1 1 2 1 0 1 2 4 5 6 6 6 7 6 6 6 6 6 7 6 6 6 6 6 6 6 7 6 6 6 6 6 6 7 7 7 8 7 7 7 7 8 8 8 8 8 8 8
0 1 1 3 2 1 1 2 3 5 3 4 5 3 3 3 1 1 5 11 5 4 1 4 6 6 6 5 10 10 10 11 12 13 10 10 9 8 6 4 4 5 2 1 1 2 3 1 2 1 2 1 1 2 1 2 3 6 5 7 7 6 5 7 7 7 7 7 7 7 6 6 6 5 6 7 8 7 5 6 6 6 7 6 5 8 8 7 7 7 8 8 8 9 9 8 8
4 2 0 1 2 1 1 0 3 1 7 4 3 1 2 3 4 1 3 10 7 3 3 4 6 4 5 9 11 14 14 14 14 10 8 8 9 9 7 7 3 0 1 1 0 1 2 3 3 3 2 1 2 1 2 2 2 3 7 7 7 6 6 7 7 7 8 7 7 7 6 8 6 6 5 5 8 5 6 5 6 7 7 6 5 6 8 7 8 7 8 8 9 9 9 8 8
2 1 1 1 0 2 3 1 3 1 1 1 2 2 1 4 1 1 9 10 8 4 0 1 3 5 6 7 11 10 10 8 10 8 4 3 4 2 3 2 2 2 4 1 1 2 2 3 3 2 1 3 3 2 3 2 2 2 4 7 7 7 6 5 6 6 7 6 6 7 6 6 6 6 6 6 6 7 7 5 5 6 7 6 6 6 7 8 7 6 7 8 8 8 7 8 8
1 0 2 0 0 4 1 3 1 0 0 1 2 4 2 3 2 5 16 8 4 3 2 3 5 6 9 10 10 10 11 11 8 7 8 4 3 6 6 4 4 5 4 2 1 1 2 2 1 3 4 3 3 4 4 3 4 4 3 2 5 8 7 6 7 6 7 5 6 8 9 7 7 7 6 5 8 9 8 7 5 6 6 6 5 7 7 9 8 7 8 7 8 9 9 6 8
2 2 1 2 0 2 2 3 0 0 1 1 2 2 0 2 2 9 2 3 5 4 2 1 4 8 9 7 7 7 8 10 10 4 4 4 5 7 7 5 5 5 3 3 2 1 1 2 2 3 4 6 5 5 5 3 4 3 4 4 2 5 7 6 5 5 5 5 4 9 9 7 8 7 7 8 7 8 8 8 7 5 6 6 7 8 6 8 7 8 7 7 8 9 8 5 8
4 2 1 1 8 0 1 1 1 0 1 3 2 2 0 2 2 12 1 1 1 5 3 4 6 7 6 6 6 6 6 5 5 6 11 10 10 8 8 7 6 5 5 4 3 1 1 3 3 5 6 6 6 6 4 4 4 3 4 4 4 1 5 6 5 6 5 5 5 5 8 8 6 7 9 9 8 7 8 8 7 7 7 6 7 7 7 7 9 9 9 9 9 9 8 7 7
0 0 0 4 8 2 4 0 2 0 2 3 2 2 3 1 8 10 1 0 1 3 6 6 7 5 5 6 6 6 7 5 5 7 10 8 5 5 8 6 6 6 3 4 2 1 3 1 2 3 6 7 7 6 5 4 5 4 4 4 4 3 3 6 6 5 6 5 5 6 7 9 6 7 6 9 9 9 9 8 7 5 7 7 8 10 8 9 9 9 10 9 9 8 9 8 7
0 6 2 3 6 4 2 1 2 2 1 2 1 6 7 9 16 4 0 4 1 2 7 8 7 5 6 6 7 6 6 6 8 9 7 6 6 6 7 6 6 5 4 3 2 2 1 1 1 1 3 5 5 4 4 4 6 3 5 5 4 4 4 5 5 4 5 6 6 7 6 6 7 7 8 6 7 9 9 9 8 6 5 7 7 7 8 8 9 10 9 9 8 7 8 6 8
2 1 4 0 2 4 2 1 0 3 1 1 1 4 9 6 11 6 4 6 6 7 10 8 7 7 7 7 7 8 9 8 8 8 8 7 6 5 6 5 6 5 3 3 4 3 2 1 1 2 3 4 4 4 3 5 7 5 4 5 3 3 4 6 4 5 4 5 6 6 7 7 6 7 8 9 7 7 7 9 6 5 5 6 7 5 8 8 8 9 9 10 8 7 7 7 9
3 1 3 3 3 5 8 2 4 3 1 0 2 4 11 10 11 3 3 4 3 10 9 7 7 8 8 7 8 9 10 7 8 9 9 9 7 7 7 7 6 5 5 4 3 3 2 2 2 5 4 6 5 4 4 3 7 5 2 4 5 4 4 6 4 5 5 3 5 6 6 8 8 8 7 8 8 7 8 7 6 5 6 6 6 7 9 7 8 9 7 10 11 7 8 8 7
5 1 3 1 1 5 8 1 2 2 1 1 4 7 6 6 4 4 2 5 4 7 10 9 8 9 8 9 9 9 8 10 8 11 10 8 7 6 6 6 7 6 5 4 4 3 3 3 3 5 7 6 6 6 5 4 6 6 3 3 5 6 3 4 5 3 5 3 4 5 5 7 8 8 7 5 8 7 7 7 6 6 5 6 9 8 5 6 9 9 7 5 10 9 9 10 8
3 3 2 4 2 1 2 5 1 1 1 4 1 2 10 8 5 3 2 4 3 8 12 11 9 8 8 8 9 11 11 10 13 12 11 9 7 8 6 6 7 6 5 5 5 5 5 4 3 4 5 5 5 5 5 5 5 6 3 3 5 6 3 3 5 3 5 3 5 6 4 6 6 7 6 6 7 7 7 7 6 6 8 8 8 8 6 4 6 9 10 6 7 9 8 9 9
3 2 0 4 1 3 5 2 0 1 2 3 1 7 14 15 13 11 5 5 6 11 12 11 9 8 9 10 10 12 11 11 16 10 9 10 10 8 7 7 7 6 5 6 5 4 5 4 4 5 6 7 6 6 6 6 6 6 4 3 6 6 4 4 6 4 4 4 4 5 5 5 7 7 7 7 8 8 8 7 7 6 7 9 10 8 6 7 7 7 12 9 6 6 8 8 9
3 8 6 3 3 3 3 7 2 3 2 4 6 10 12 13 15 14 7 7 8 13 10 10 11 9 9 10 11 11 12 14 9 6 9 9 9 10 8 8 7 6 6 6 7 6 6 6 6 6 5 6 6 6 5 5 5 6 7 5 6 5 4 4 4 4 3 4 4 4 3 4 7 7 6 8 8 7 8 8 8 6 6 7 9 10 7 8 11 12 10 12 11 9 7 7 7
6 4 4 3 3 5 5 5 5 1 1 9 12 11 10 12 13 14 9 3 7 11 14 14 12 11 12 12 13 13 12 15 3 9 10 11 11 10 9 9 8 9 8 8 8 8 8 7 9 9 6 7 7 8 6 7 7 5 3 5 6 3 4 4 5 3 4 4 5 5 4 2 5 8 6 7 7 8 7 7 6 7 6 5 7 8 9 9 8 10 10 8 12 11 7 4 3
2 3 2 4 3 8 4 1 2 2 3 4 3 4 11 13 13 15 10 3 13 15 15 16 16 13 12 14 15 14 12 1 5 6 8 9 9 10 9 7 10 14 11 10 10 10 9 9 10 9 8 8 5 7 7 6 5 5 6 5 6 4 4 4 5 3 4 4 5 5 4 3 4 6 7 8 6 7 8 6 7 7 7 6 6 7 8 9 10 10 10 10 3 7 6 2 1
2 3 2 1 7 5 9 3 2 1 1 10 7 10 14 11 12 14 14 15 13 13 14 18 14 12 12 13 14 11 6 9 7 9 8 10 10 10 8 9 11 12 12 11 9 10 10 9 8 9 8 9 6 6 6 5 2 4 5 5 5 5 4 3 4 3 4 5 4 4 4 2 3 6 8 7 7 6 7 7 7 6 6 7 9 9 9 10 9 11 9 11 8 3 4 2 2
3 2 1 8 3 1 6 1 2 1 3 4 3 11 14 10 10 17 19 16 12 9 13 15 12 14 17 16 10 9 11 12 13 12 12 10 9 8 8 12 12 11 11 11 11 11 9 9 9 9 9 7 7 5 5 5 6 8 8 7 6 5 5 4 5 4 5 6 5 4 4 2 2 7 7 6 5 6 6 6 7 7 7 5 9 11 10 10 9 8 7 7 10 9 2 2 4
3 6 5 3 3 5 7 5 3 1 1 2 6 10 11 9 11 8 7 5 7 17 13 12 15 15 16 7 5 10 14 13 12 9 10 11 12 13 15 12 11 13 12 13 13 11 7 11 11 11 9 8 7 6 7 8 8 8 7 8 8 9 7 5 5 4 3 4 5 4 3 2 1 7 7 6 7 8 6 6 7 7 7 7 7 9 9 9 8 7 8 9 7 10 5 2 3
3 5 10 8 6 7 3 3 5 7 5 2 3 8 4 4 5 10 8 6 7 6 6 13 16 14 6 10 14 10 10 9 13 14 14 14 13 9 11 13 14 13 13 11 12 9 10 10 10 9 9 6 5 6 8 8 9 12 7 9 8 7 7 6 8 10 6 5 5 3 4 2 1 8 6 7 8 6 7 7 8 8 9 6 6 7 7 7 7 8 6 6 7 2 8 5 4
1 5 7 10 5 3 2 2 2 3 4 1 3 2 12 2 5 5 6 5 12 9 6 12 13 10 5 10 11 10 10 9 7 7 9 12 12 11 13 14 15 15 13 11 11 11 12 10 10 10 9 7 7 7 8 6 7 8 13 13 13 13 11 5 3 5 5 4 4 5 3 2 3 8 7 6 6 7 8 7 8 8 7 7 6 7 7 7 6 7 4 4 4 7 6 6 6
4 2 3 4 4 5 4 3 6 6 1 3 1 3 6 16 5 7 7 7 11 11 15 17 14 7 8 9 10 9 8 9 9 11 11 12 12 14 16 17 14 13 11 11 12 11 14 13 13 12 9 8 8 8 8 7 8 9 7 7 8 10 10 12 8 6 5 4 6 4 3 3 5 6 6 6 5 6 6 6 7 7 8 7 7 6 7 6 5 4 4 5 5 4 6 9 7
2 1 4 5 5 4 3 3 3 1 4 8 1 0 2 8 3 2 0 4 8 12 15 16 12 6 7 9 9 8 8 9 10 10 12 13 14 13 11 12 12 12 13 14 13 10 11 11 11 10 8 8 8 11 10 7 7 10 7 7 8 3 6 6 6 5 6 5 8 4 3 3 5 6 6 6 5 6 5 7 8 8 8 7 6 6 6 6 8 8 7 6 7 4 4 7 8
1 5 6 7 7 6 4 4 3 2 2 10 5 6 3 18 3 3 4 1 7 10 14 15 10 8 8 9 7 6 5 5 7 9 9 11 11 12 11 10 12 14 13 11 11 11 10 10 12 12 10 8 9 10 8 8 7 6 6 7 10 9 7 6 5 6 6 4 6 5 3 3 4 5 5 4 6 5 7 7 8 10 9 8 6 8 8 8 8 9 9 7 7 8 4 6 7
8 4 7 5 7 4 3 6 2 2 4 9 10 12 7 11 3 8 8 8 9 11 8 8 7 8 10 8 8 6 5 6 7 7 7 8 7 9 10 13 13 12 10 12 10 11 12 12 13 15 12 7 9 9 9 9 8 6 6 9 11 13 12 10 8 6 5 5 6 5 5 4 4 5 5 4 4 6 6 6 7 8 7 7 8 8 8 8 7 7 7 8 9 9 7 7 7
5 2 3 3 2 6 3 4 4 1 9 0 3 6 4 11 4 6 6 5 5 8 9 9 7 8 8 4 5 6 6 6 5 6 6 7 7 8 10 12 13 14 13 12 11 10 11 11 13 15 12 9 9 9 8 8 7 8 6 8 11 12 14 13 13 12 9 9 8 8 5 4 4 4 4 5 5 5 6 6 6 7 7 7 8 6 7 7 7 7 7 7 7 7 8 7 7
2 5 6 5 4 5 3 3 2 5 9 1 4 0 5 17 15 3 7 11 11 9 10 11 10 10 9 6 6 5 4 4 5 6 7 8 10 12 13 13 12 14 15 16 13 12 11 12 14 16 14 10 9 9 10 8 8 7 8 8 8 10 11 13 15 12 10 10 8 8 7 7 6 6 6 7 7 8 6 8 7 7 7 6 7 7 7 8 8 7 8 8 8 9 8 9 8
5 8 7 6 1 1 4 4 2 7 8 4 1 1 9 2 8 14 21 21 15 8 12 12 11 13 10 7 5 5 4 6 7 7 8 9 10 11 12 13 14 12 14 14 13 12 12 11 13 14 16 10 9 10 11 10 9 8 7 9 10 10 11 9 9 9 10 8 9 10 9 10 9 9 9 9 7 7 5 6 7 7 6 7 7 8 8 8 8 7 8 8 8 6 6 8 8
10 2 10 9 8 7 4 5 6 8 5 2 5 1 8 4 4 2 10 8 6 7 8 8 8 10 12 5 5 6 7 7 7 8 10 11 11 12 12 12 12 13 14 14 12 12 12 13 14 15 15 13 11 10 10 9 9 8 7 8 8 8 9 8 7 8 10 9 7 7 7 9 9 8 7 6 7 6 6 5 5 6 6 6 6 6 5 5 5 5 5 6 5 4 5 6 6
2 2 5 4 8 6 6 4 3 1 3 5 2 7 4 6 3 6 5 7 9 7 7 5 10 10 7 9 8 8 9 9 8 9 9 9 8 9 10 11 12 12 14 13 15 14 13 13 13 14 15 14 12 12 11 12 10 9 9 9 8 9 7 4 4 5 5 7 9 9 9 8 7 8 6 7 6 5 6 6 5 6 6 6 5 6 6 5 5 6 6 6 7 3 6 7 5
5 6 7 6 2 6 4 2 2 1 3 12 3 10 7 9 11 13 16 11 12 6 5 5 11 7 4 9 11 8 9 8 8 9 8 8 7 9 10 11 10 11 13 14 15 14 14 12 13 13 13 12 12 12 11 11 10 10 9 8 8 9 8 9 9 11 11 8 7 7 8 8 8 7 7 6 7 6 5 6 7 6 6 6 7 6 6 6 5 5 6 6 7 5 6 7 5
9 4 8 2 2 3 5 5 2 4 4 8 3 8 10 3 17 2 0 5 13 9 12 12 10 5 6 12 12 11 7 6 6 7 6 7 8 10 10 10 11 12 13 13 14 12 11 11 13 14 12 13 12 12 11 11 10 10 9 9 9 10 9 9 8 8 9 9 7 6 6 8 9 7 7 6 6 7 6 6 7 7 6 6 7 6 7 7 7 6 6 6 5 5 6 5 5
5 4 4 7 4 2 1 4 4 1 5 7 5 2 10 10 15 2 2 5 7 10 10 6 10 9 11 11 12 10 6 4 6 7 8 8 10 10 11 11 10 10 11 12 11 11 10 10 10 11 13 13 13 10 10 9 10 9 9 10 9 9 7 6 6 6 7 9 10 8 8 8 9 8 7 8 8 7 7 7 6 7 6 7 6 7 7 7 7 7 6 6 5 5 5 6 5
1 2 3 1 2 1 6 8 3 5 5 2 9 2 15 7 9 6 10 11 10 8 2 7 11 9 7 7 9 7 6 7 7 8 9 9 9 10 11 11 11 12 11 10 11 10 12 12 10 10 9 9 10 11 10 9 9 9 8 8 8 7 6 8 9 9 9 9 9 10 10 10 10 8 7 8 7 8 8 8 6 6 7 6 7 6 7 7 7 7 7 6 5 5 6 6 6
1 2 4 1 1 2 4 1 3 3 5 4 1 10 16 11 9 10 12 14 12 10 9 9 8 7 8 7 7 6 7 7 8 9 8 9 9 9 9 9 8 6 7 8 10 12 11 10 11 11 13 12 12 11 11 11 10 10 10 10 10 9 9 7 8 8 9 9 8 8 8 9 9 8 8 8 8 8 8 8 8 7 8 7 7 6 5 6 6 7 6 7 7 6 7 6 6
14 16 15 17 11 6 4 7 2 2 4 6 5 15 19 5 4 9 8 10 8 11 14 12 8 4 5 5 6 7 7 7 7 7 7 8 8 8 7 7 6 7 8 10 10 10 11 12 11 11 10 11 12 11 11 10 9 9 11 10 10 9 8 8 9 9 9 8 9 8 9 10 10 8 8 9 9 7 7 8 8 8 7 7 7 6 6 6 7 7 6 4 6 7 7 7 6
Wind_Direction
317 330 325 9 38 100 52 1 156 336 54 67 329 67 165 4 205 21 230 349 293 239 194 84 135 130 208 228 176 146 199 118 215 138 217 241 284 268 258 273 251 243 162 174 177 143 132 129 88 41 128 118 120 119 117 114 114 114 109 108 109 107 105 104 105 101 99 98 95 92 90 88 83 76 71 67 62 60 59 59 58 59 60 60 61 63 64 63 65 68 73 77 75 76 81 83 82
329 326 36 15 16 40 337 154 97 352 40 86 217 97 248 278 50 215 182 213 213 0 94 120 106 94 66 76 109 147 74 273 173 68 275 234 327 244 298 330 264 167 154 159 154 86 67 44 28 21 130 121 119 124 120 118 114 106 108 108 110 110 111 115 113 111 109 104 101 99 96 90 83 78 73 69 65 60 59 58 59 59 61 62 63 65 67 67 67 70 73 76 77 80 82 82 81
19 8 334 28 36 73 96 27 310 17 77 21 274 209 341 141 209 232 219 208 177 148 28 87 139 62 32 277 9 57 185 65 234 215 208 337 148 321 329 342 261 189 151 153 154 166 105 51 23 7 131 119 115 122 120 115 113 108 111 109 105 107 107 108 109 108 107 104 104 100 94 89 86 83 76 70 65 62 60 58 59 61 62 64 65 67 69 70 69 70 72 76 80 81 81 79 77
64 38 139 55 93 27 51 32 87 120 122 199 309 259 201 170 232 207 237 237 178 36 2 67 106 234 129 40 196 159 17 17 199 160 102 96 121 310 302 300 206 192 145 165 173 171 127 119 80 347 134 125 124 124 117 111 109 101 94 103 106 101 98 101 103 105 103 104 101 97 91 83 84 85 80 73 68 66 63 60 58 60 63 66 67 69 71 70 70 72 75 78 81 81 78 81 80
56 350 67 106 111 7 102 96 129 95 71 196 148 257 246 206 168 194 257 284 267 160 332 288 101 5 180 103 144 133 201 265 292 193 264 260 247 290 298 284 227 173 159 175 168 175 159 145 184 310 165 140 137 134 130 121 114 98 87 89 100 101 97 98 100 99 99 99 100 99 94 95 90 84 80 75 71 67 65 63 62 61 63 66 69 70 71 71 72 74 77 79 79 77 77 76 74
52 38 8 77 67 165 75 74 52 158 217 154 122 226 211 205 158 187 209 310 284 210 192 181 185 183 73 295 190 101 195 93 191 248 164 252 328 347 301 287 199 173 164 173 175 175 161 180 175 223 172 149 141 142 138 130 118 113 109 108 110 106 102 97 97 99 101 102 101 99 95 94 90 85 79 75 72 70 69 68 66 67 66 67 70 72 72 73 73 74 78 79 75 73 73 72 73
269 39 2 44 36 47 154 124 188 185 257 167 208 247 209 197 210 129 330 101 295 97 163 247 104 100 85 294 14 240 206 314 84 219 181 303 322 330 297 236 191 188 163 162 178 178 161 173 175 184 180 166 149 150 145 129 122 118 121 120 115 110 109 104 102 102 103 103 101 99 98 97 91 86 81 77 75 74 73 72 71 70 70 70 70 72 73 73 75 75 76 75 73 73 74 73 71
70 128 330 102 357 42 53 151 173 176 342 186 240 253 246 212 167 148 178 148 215 191 200 243 346 122 248 55 169 299 330 210 242 291 276 299 308 327 204 193 182 192 158 162 165 185 155 174 187 175 156 155 148 154 142 135 126 121 119 124 121 115 109 105 100 99 101 101 102 102 101 97 94 91 86 80 78 77 76 74 74 73 72 73 73 73 73 73 75 77 78 78 77 75 69 66 67
8 85 261 71 59 25 68 90 233 245 287 285 274 222 305 181 174 128 172 242 328 219 219 209 219 140 223 55 183 307 290 261 287 290 297 297 307 336 176 176 174 165 199 137 159 169 173 189 203 152 173 164 146 152 140 138 127 126 122 118 120 115 109 105 103 103 103 104 105 104 104 103 102 96 89 83 80 78 77 77 76 75 76 75 74 74 74 74 75 76 76 76 71 68 69 69 67
43 44 197 108 133 43 16 277 111 187 240 231 244 226 193 171 172 74 159 146 219 111 221 5 208 292 135 175 351 286 175 221 295 192 313 337 345 103 165 189 171 153 182 136 158 160 189 173 183 132 257 192 125 150 145 139 129 130 127 128 118 108 111 109 109 110 111 111 111 111 111 110 105 99 91 87 83 81 79 79 78 78 78 76 75 75 75 75 77 79 78 77 72 71 69 67 65
3 21 136 78 32 94 167 220 265 320 266 312 278 239 214 160 134 124 130 216 46 158 268 158 188 154 148 253 198 300 304 315 159 156 320 327 41 78 159 217 185 179 154 157 151 153 124 127 151 202 261 254 157 171 166 146 138 137 133 127 125 122 123 120 116 117 119 119 120 118 116 112 106 102 95 89 85 83 83 82 81 82 81 80 79 78 78 79 80 80 79 77 75 72 70 68 66
34 22 12 97 150 155 220 161 256 285 299 342 168 41 194 155 109 113 192 148 195 282 184 166 248 145 107 324 256 212 328 83 166 179 277 251 89 65 89 89 184 136 146 172 149 144 139 146 183 208 229 277 159 128 127 146 144 141 137 129 128 128 129 123 122 122 121 122 121 119 117 114 110 104 97 92 88 87 86 84 84 84 84 83 82 83 83 83 82 83 83 80 76 75 72 70 68
111 92 87 83 175 130 172 110 217 310 345 275 176 34 127 127 184 186 175 117 99 117 277 205 131 170 238 195 254 313 139 199 258 236 281 114 104 79 76 81 71 67 83 127 194 133 160 174 146 188 83 9 125 66 62 98 141 149 145 130 129 125 122 124 125 123 122 121 118 116 113 114 114 107 98 95 93 90 88 86 86 86 84 84 84 85 86 86 86 86 84 81 79 78 76 74 72
118 178 127 143 36 122 138 163 352 161 253 247 268 99 183 144 242 176 128 151 202 167 237 168 154 165 266 10 229 213 220 197 240 229 240 119 109 74 85 78 77 68 63 79 68 50 52 100 151 173 147 201 147 155 110 41 175 164 143 131 126 126 127 124 122 120 116 109 109 113 116 112 109 102 99 96 94 91 89 88 88 88 87 86 85 85 86 87 87 86 84 83 82 80 79 76 71
107 171 83 113 60 104 239 129 195 164 236 190 170 137 167 267 93 145 169 173 248 211 317 228 208 125 236 157 274 211 184 191 189 239 142 118 108 88 73 68 81 63 58 65 55 38 38 45 90 122 150 171 124 151 144 99 111 170 142 134 130 131 125 113 99 96 97 99 103 112 111 103 104 101 97 98 98 94 88 86 87 88 90 89 89 89 89 88 88 87 85 84 82 80 77 75 71
135 93 78 102 174 141 224 125 5 102 254 177 182 247 119 0 197 127 245 189 155 345 80 197 119 217 63 168 251 290 239 185 194 184 131 119 104 93 87 86 84 66 65 47 65 42 29 23 55 32 86 109 157 176 163 130 116 152 157 139 137 131 118 112 106 98 96 98 102 109 109 108 109 108 106 101 100 97 96 94 90 92 92 92 92 92 91 91 89 87 86 85 82 79 75 71 68
66 82 64 48 179 177 212 151 146 192 242 249 281 193 161 238 171 250 115 163 133 192 345 218 199 48 197 195 259 283 279 247 197 155 129 124 127 117 102 102 94 70 57 48 44 41 25 10 47 55 76 70 45 174 162 146 138 134 139 144 139 128 123 113 106 104 103 102 110 112 116 115 114 114 109 106 105 98 99 95 95 95 94 94 95 95 94 93 92 90 89 85 82 78 74 69 64
53 72 115 134 203 156 200 176 187 208 120 217 183 208 123 195 244 210 137 33 46 329 257 295 292 253 210 238 243 254 281 172 198 155 153 141 147 151 153 151 137 142 104 75 34 38 19 0 40 31 63 54 9 179 175 155 142 143 153 149 142 129 118 116 116 121 118 120 120 124 124 125 124 112 111 115 103 103 98 98 98 96 94 92 93 95 95 94 93 93 90 86 84 81 75 73 66
85 132 87 206 175 238 166 189 188 119 276 152 166 170 166 209 147 213 106 276 4 260 263 20 297 284 292 262 337 159 163 174 184 170 165 164 177 165 168 160 161 147 142 122 79 27 3 314 24 49 25 48 26 9 173 183 146 161 149 146 140 136 132 125 125 128 134 132 133 128 129 130 130 121 123 109 104 108 100 100 101 100 96 92 92 93 93 91 89 88 86 84 82 79 74 74 71
198 114 184 253 204 221 206 174 185 228 137 112 146 188 148 220 145 131 209 187 50 225 229 275 248 245 210 196 127 158 165 177 188 175 178 179 186 179 166 167 175 179 149 160 142 231 232 305 343 54 0 31 40 32 211 188 175 157 154 148 147 147 147 137 136 137 141 134 129 134 130 129 132 129 111 105 109 106 101 92 96 94 91 87 87 82 75 80 83 77 78 79 75 67 74 73 72
206 72 163 224 174 109 216 188 226 195 127 147 133 109 155 244 209 162 177 136 251 252 231 201 217 227 210 189 160 170 174 183 195 190 185 191 196 222 181 174 170 162 163 171 157 173 230 313 286 119 336 63 45 319 0 206 175 165 156 151 149 144 153 142 142 147 145 138 136 142 139 134 136 129 130 119 114 110 112 115 107 102 100 95 95 88 90 85 83 82 77 68 71 70 70 66 68
95 62 192 170 147 48 227 203 166 153 136 104 121 129 214 95 91 147 152 186 235 210 237 211 235 213 171 182 181 173 181 188 194 194 194 188 189 192 208 184 226 262 239 174 128 181 175 262 294 342 33 23 343 179 284 284 205 170 160 151 153 153 159 151 148 151 143 146 155 155 145 135 130 141 143 132 132 124 127 123 115 117 108 105 105 100 96 92 87 87 84 80 75 72 71 69 65
111 333 267 203 212 114 321 189 216 137 134 131 138 213 84 153 220 180 186 215 229 216 187 215 239 220 209 146 150 176 183 194 196 199 188 190 192 193 194 201 182 186 180 139 334 326 323 338 357 37 32 31 275 280 255 220 235 163 157 155 156 159 163 157 163 152 150 159 158 162 149 153 147 143 144 148 142 136 130 129 123 119 115 109 109 110 102 93 91 87 85 86 83 78 73 71 70
106 152 9 235 173 296 132 281 115 157 131 193 198 57 171 128 232 111 222 239 237 213 226 241 247 244 170 156 184 184 188 194 200 197 194 191 186 193 186 182 212 0 176 168 86 320 326 340 347 350 7 327 284 264 226 233 211 189 156 157 154 161 162 167 160 157 154 160 163 165 161 158 157 146 140 138 133 124 124 119 122 120 113 109 109 109 110 101 95 93 94 89 84 76 73 69 70
74 80 211 236 101 258 310 137 131 128 168 35 115 141 233 188 196 29 254 242 243 251 98 294 149 155 176 184 187 194 194 199 202 198 204 247 205 187 177 196 199 164 194 250 331 350 340 320 331 329 325 299 280 245 220 195 178 202 155 160 155 157 166 170 161 159 155 165 166 159 155 151 138 135 131 129 119 114 107 106 114 116 117 118 118 104 104 105 96 97 90 87 83 82 77 74 71
109 174 136 23 110 322 214 78 83 36 298 141 124 256 281 258 226 245 250 251 224 133 84 110 132 156 189 200 195 190 196 200 188 186 198 188 182 176 206 196 178 188 194 174 198 228 300 316 285 310 301 270 268 235 214 167 165 153 128 93 152 156 164 164 160 167 153 161 169 167 166 155 152 143 136 136 134 133 127 114 104 114 115 118 111 108 105 106 108 97 91 87 85 84 79 75 80
122 130 117 131 311 335 59 175 261 298 200 196 194 279 8 327 96 278 28 325 123 112 132 274 176 197 205 205 204 210 200 201 194 149 141 188 196 197 198 196 191 196 166 190 180 199 300 319 271 252 258 262 264 229 198 152 148 156 139 116 101 173 155 149 157 145 143 146 178 157 158 151 153 149 145 141 134 131 127 122 119 117 108 107 110 105 99 101 98 99 100 98 95 89 84 75 80
47 139 134 21 339 323 328 8 336 349 240 182 184 261 19 328 76 244 220 338 336 167 219 224 217 223 216 219 213 216 222 216 180 175 194 190 202 191 195 187 193 182 178 191 189 162 224 243 253 250 243 239 233 222 177 144 133 129 136 133 133 240 142 139 139 139 132 134 149 133 143 145 140 149 147 139 136 134 131 130 134 127 118 116 110 109 103 101 99 97 90 89 92 96 96 79 75
87 180 204 301 355 345 2 256 320 1 248 150 160 328 260 151 227 246 305 186 59 186 225 237 232 240 249 241 237 230 220 212 198 209 215 209 190 187 201 196 181 180 189 179 168 155 209 220 243 226 230 219 220 191 169 142 116 144 131 122 122 137 123 128 132 133 134 132 120 132 140 141 135 139 135 139 144 140 134 129 125 119 125 123 114 110 107 107 103 101 96 96 92 97 96 89 79
55 36 85 333 359 337 338 309 355 136 271 132 304 272 239 235 239 239 239 136 91 250 252 236 239 239 240 239 236 244 238 223 219 219 213 212 199 192 201 200 190 175 175 179 158 200 162 221 211 220 193 172 164 142 142 140 118 127 113 104 116 128 126 107 107 117 123 132 132 129 119 122 127 133 127 113 130 133 128 120 120 116 119 121 120 122 116 117 112 108 109 101 100 98 96 96 88
144 285 65 54 16 275 297 96 321 158 197 176 72 236 273 257 267 272 299 190 171 233 240 236 234 238 235 231 235 234 238 218 225 219 221 216 210 200 207 196 183 166 155 165 201 198 171 166 180 139 102 101 102 94 98 135 111 117 113 112 105 115 120 106 110 109 101 121 127 120 123 125 116 123 132 131 119 121 128 125 111 118 120 119 113 113 116 113 110 112 117 108 100 95 93 85 87
24 60 290 328 151 279 295 243 177 176 349 5 137 266 258 279 275 279 305 195 206 237 251 245 237 235 235 237 236 238 238 222 229 230 217 210 200 198 198 196 176 169 180 189 197 170 154 129 141 139 108 114 103 95 85 93 94 77 81 117 112 87 107 107 97 92 98 77 113 114 123 115 118 124 128 128 123 123 127 111 112 115 115 114 110 115 119 114 108 105 109 121 114 107 102 92 89
357 88 265 218 69 266 332 23 261 345 100 356 185 244 333 297 285 328 356 174 196 245 265 260 248 240 237 234 234 242 249 243 233 226 215 199 201 202 197 193 180 177 169 184 188 162 144 121 121 138 129 130 116 102 89 81 89 94 77 90 103 93 63 93 97 87 95 94 105 109 117 115 123 124 123 121 117 120 114 108 114 110 109 111 118 114 106 119 120 114 109 101 116 121 108 103 93
298 23 212 203 187 259 266 310 81 340 95 204 259 229 243 256 271 291 342 163 190 239 256 259 250 243 233 240 238 237 233 234 234 215 209 191 192 198 196 194 182 169 175 179 179 176 157 145 123 122 120 117 115 108 103 94 91 98 88 91 82 80 65 65 85 92 94 101 97 104 87 110 114 112 109 108 109 109 110 111 110 110 116 112 111 116 105 103 105 119 113 105 110 118 112 109 104
210 162 284 289 273 209 257 312 253 99 20 198 310 245 264 269 274 273 243 196 194 242 243 252 259 248 241 233 239 237 236 230 237 217 191 187 187 190 192 190 175 172 173 172 170 157 139 134 119 122 130 129 117 109 102 100 98 90 82 74 81 73 58 57 79 69 97 102 91 93 113 122 116 110 116 118 119 125 116 113 115 121 121 120 116 116 113 116 111 108 117 109 69 70 107 103 110
176 166 175 168 179 217 204 238 280 184 200 230 225 234 247 257 269 272 263 193 214 253 263 265 256 250 246 239 240 237 234 239 234 179 187 184 188 181 184 181 178 172 173 170 165 157 151 145 136 135 138 134 129 125 123 110 107 112 113 105 83 73 64 67 64 68 70 84 83 94 108 127 123 118 127 122 120 123 124 129 126 132 135 136 131 131 138 138 132 118 110 114 107 89 77 104 115
104 95 116 189 204 284 278 271 258 236 318 233 235 243 252 264 266 271 268 160 250 264 265 259 252 242 239 240 238 236 231 239 160 191 184 188 188 184 182 177 175 174 175 171 165 169 166 157 158 158 153 151 152 147 144 142 130 114 105 118 119 100 96 79 65 59 70 70 66 82 68 104 119 117 121 117 116 118 111 114 111 114 130 129 130 132 129 120 113 115 113 103 117 114 102 111 100
140 118 157 266 160 248 234 220 15 295 174 296 273 261 260 254 265 269 273 200 253 246 255 257 255 240 239 237 241 235 237 36 169 188 198 185 187 186 179 179 179 184 190 182 176 178 172 169 171 161 159 164 169 166 152 157 154 159 156 143 126 114 119 115 109 75 76 63 54 63 86 100 115 112 116 114 98 117 122 123 131 136 133 113 97 107 112 117 122 122 125 107 54 114 121 159 133
62 185 187 303 264 248 280 295 336 293 131 263 291 280 268 257 253 264 260 250 245 238 234 249 251 254 242 239 239 240 219 228 197 212 189 193 187 186 184 185 189 189 186 186 178 176 175 176 173 164 165 168 165 164 153 149 115 88 121 129 132 105 44 48 83 96 82 84 69 60 54 81 124 103 103 113 121 119 119 127 128 123 122 130 125 124 126 129 136 138 146 132 126 44 89 41 12
146 107 130 231 226 28 299 292 2 193 179 274 317 296 280 263 248 249 251 244 258 258 253 257 255 256 254 244 230 221 223 224 217 201 196 186 187 189 189 192 189 184 185 187 183 182 178 180 174 169 168 163 161 151 118 90 89 85 89 94 81 82 125 102 84 86 89 87 72 54 43 49 113 104 95 103 101 98 111 125 127 129 131 150 137 136 140 139 143 140 132 128 125 132 139 83 19
262 192 201 226 205 234 189 255 295 244 9 55 310 272 272 234 242 260 273 299 265 261 261 261 259 242 250 280 253 211 221 217 220 201 194 183 187 197 196 188 178 187 191 191 187 184 179 181 177 172 169 166 158 137 131 127 111 90 98 85 91 93 78 95 101 71 65 91 97 68 52 29 149 97 92 92 105 106 113 128 128 127 129 139 142 133 143 145 139 133 139 142 161 141 136 128 50
291 233 200 216 215 229 271 348 13 359 334 343 36 319 288 303 243 247 277 326 293 258 241 253 254 256 244 247 246 236 233 218 210 205 196 190 193 187 193 190 188 192 192 191 187 175 175 175 170 168 166 161 141 144 144 143 141 140 136 134 135 130 133 149 158 158 166 158 131 113 74 45 112 91 90 94 95 113 120 126 124 126 127 132 135 122 118 119 131 140 152 146 121 50 128 122 111
58 272 201 218 208 192 221 277 56 286 240 293 39 56 288 201 229 241 269 259 262 280 264 263 260 256 231 239 245 236 225 225 227 212 190 186 196 187 195 196 193 192 192 182 181 180 178 171 173 170 164 153 151 154 156 153 147 163 165 164 161 163 161 178 97 110 116 102 102 98 98 79 69 98 92 85 93 96 103 113 114 114 117 116 120 125 128 128 128 127 137 130 122 127 138 113 134
237 256 145 142 148 187 216 161 183 239 271 298 56 129 274 293 238 232 242 254 270 289 283 268 259 258 239 240 245 241 226 216 206 208 198 198 191 190 194 196 190 190 174 174 182 177 182 179 175 176 164 156 160 163 169 173 156 169 175 172 165 166 168 162 150 125 109 123 105 102 115 101 80 76 97 97 105 111 120 114 120 123 120 121 129 129 127 130 116 104 106 111 122 129 141 136 144
221 226 135 150 162 176 128 129 166 297 15 292 323 293 286 257 273 330 305 228 263 261 261 264 269 258 256 255 249 243 231 216 204 201 200 195 194 198 193 188 189 178 178 185 184 178 174 172 170 166 160 156 162 169 172 177 177 172 172 160 148 68 88 108 109 112 122 134 109 109 103 108 92 80 77 103 112 121 125 131 132 127 123 127 127 123 124 134 136 135 136 134 133 117 120 127 134
228 125 91 82 78 66 104 99 95 321 44 269 178 190 193 276 182 164 342 208 255 249 247 256 269 275 268 266 266 254 247 229 217 214 202 200 197 194 189 178 177 184 183 178 181 177 174 169 172 172 169 164 166 171 173 172 172 169 157 158 143 132 120 112 114 124 130 137 116 116 126 123 112 104 96 99 115 120 128 139 134 130 131 134 136 133 132 132 135 128 132 131 131 117 124 137 138
129 114 80 34 42 43 30 63 81 33 267 262 187 199 166 278 187 187 158 203 199 229 269 278 284 282 270 256 260 260 243 223 215 211 206 199 189 180 176 184 182 174 172 177 176 179 178 173 176 182 175 161 166 169 169 170 170 168 160 158 153 146 150 144 131 133 133 133 133 134 154 136 124 116 123 120 117 134 135 141 137 133 134 135 136 141 147 140 138 131 132 129 132 134 141 132 121
126 113 125 81 357 7 34 341 38 100 270 272 329 216 200 227 288 272 250 281 251 219 234 260 280 264 261 277 269 252 241 226 219 201 193 171 164 177 182 187 181 178 173 177 179 178 176 176 176 180 173 168 165 166 169 169 165 171 163 153 159 158 152 160 160 157 163 156 152 147 152 137 125 123 127 137 147 158 148 140 138 137 140 142 142 139 136 138 138 136 138 139 135 130 134 131 131
91 95 90 122 245 33 290 23 261 195 231 224 335 261 315 239 244 245 271 266 259 217 228 240 249 263 263 275 265 258 238 223 208 204 187 187 185 181 187 187 178 182 184 182 179 180 179 179 181 182 180 168 165 163 168 168 167 168 164 161 155 162 169 169 168 161 158 156 155 150 164 153 146 147 171 162 168 168 157 147 152 151 145 146 138 140 142 145 145 144 142 140 143 150 152 145 141
150 158 147 108 140 209 267 279 273 307 289 273 341 98 249 306 281 223 244 244 241 228 232 241 243 255 262 251 276 284 248 219 217 205 203 199 193 191 188 185 186 182 183 182 180 181 181 181 181 182 183 167 162 169 173 170 175 169 160 163 163 167 174 173 171 166 161 158 161 165 171 161 167 168 164 177 159 155 162 149 138 122 118 136 143 142 143 147 144 139 140 137 140 129 128 128 121
203 95 164 182 146 156 209 198 217 234 230 274 278 71 235 122 241 236 232 263 287 251 248 248 263 264 269 281 279 275 262 238 215 212 207 202 198 190 187 187 187 184 181 182 183 186 180 185 184 183 177 177 171 172 172 170 170 167 164 163 161 169 171 178 169 177 152 155 165 167 166 152 160 161 161 140 143 153 139 127 118 120 127 126 124 123 111 104 94 96 91 92 83 86 94 99 107
208 162 71 96 223 133 227 208 180 275 337 332 206 214 192 196 270 289 238 261 272 248 255 280 271 258 281 292 265 246 237 230 215 218 217 214 200 192 191 191 189 185 183 184 186 187 186 186 182 183 179 177 176 174 177 174 170 167 165 160 165 172 174 149 141 165 172 162 159 170 165 161 135 128 121 128 136 136 134 125 118 114 113 113 108 101 97 95 94 99 97 98 95 73 102 95 101
204 113 203 210 169 115 81 51 65 42 45 259 127 281 276 297 266 233 248 245 254 265 273 252 256 259 298 274 270 244 237 229 220 221 218 206 193 200 197 193 191 188 186 188 189 188 187 180 180 181 179 176 178 179 173 173 166 163 168 165 163 172 174 176 175 173 166 156 158 158 150 139 119 125 125 129 130 126 124 127 123 119 116 113 104 97 98 98 98 98 102 106 103 108 107 110 116
98 192 230 157 134 110 140 221 7 70 207 271 103 251 294 50 285 14 55 213 253 252 254 246 261 273 256 255 261 263 250 229 220 222 218 204 202 199 198 199 196 193 189 186 187 185 186 185 183 180 177 177 181 177 175 173 165 170 170 172 174 180 180 180 172 165 150 141 137 128 121 133 141 131 130 131 129 130 128 134 127 123 120 112 109 108 108 108 104 96 94 89 100 119 113 110 113
147 196 198 126 224 235 283 89 257 198 247 274 295 273 264 194 253 168 255 203 250 250 247 264 263 245 237 248 259 264 258 231 212 211 205 199 196 197 197 198 196 196 193 190 184 177 180 184 185 183 183 183 177 175 174 173 175 176 179 179 174 177 176 158 150 147 145 153 152 147 154 136 120 131 136 143 143 142 141 136 134 128 124 116 113 116 118 114 115 110 108 114 121 132 124 118 122
46 63 135 84 101 160 140 198 177 124 258 49 289 39 274 186 221 172 212 198 215 222 234 233 230 231 212 229 247 258 255 229 222 211 208 203 198 195 193 191 193 193 189 186 181 177 186 186 177 181 174 172 173 175 174 173 178 175 173 171 176 174 155 156 158 153 156 163 158 152 148 148 144 136 140 144 148 148 147 140 137 129 121 119 120 119 122 120 120 120 131 133 140 139 128 129 132
96 138 213 198 254 245 111 13 141 170 178 186 259 300 263 252 184 172 200 200 204 184 209 223 238 240 221 227 235 251 237 228 218 211 205 199 195 191 192 194 193 186 186 181 182 184 184 177 182 180 176 177 179 178 176 182 175 178 169 171 153 155 152 149 144 158 160 159 156 155 152 139 127 149 149 154 152 149 147 140 136 134 130 130 127 124 125 126 124 131 134 135 138 145 139 139 136
179 180 193 187 149 160 144 253 36 108 129 232 158 251 273 252 213 172 197 214 186 203 207 217 221 245 253 239 251 233 243 236 226 220 203 195 188 183 182 179 177 177 183 184 187 181 181 185 184 179 178 180 178 179 182 177 179 173 174 169 161 149 147 146 151 157 161 159 156 159 148 145 154 149 157 154 151 149 145 142 136 130 126 126 126 127 135 133 134 135 136 136 141 147 149 146 145